Aeroporto :
LOGIN :

Iscrizione | Disclaimer

   EN    FR    IT 

 










Sommario :    VFR   VFR Marginale   IFR   IFR Intensivo   IFR Molto Intensivo
Visibilità : 
Base nubi : 
>= 8 km
>= 3000ft
5 / 8 km
1000 / 3000 ft
1500m / 5 km
500 / 1000 ft
800 / 1500m
200 / 500 ft
< 800m
< 200 ft
Simboli :   Temporali  Nebbia  Neve Forte  Precipitazioni Forti  Vento > 20 kt
SIGMETs :   Varie  Temporali  Ghiacco  Turbolenza  Onda orograficha  Ceneri Vulcaniche







- Altitudine del aeroporto : 626 ft
- Codice IATA : CRA


LRCV - Craiova

ULTIMO METAR :
  • 190330Z AUTO 08005KT 9999 FEW240/// 18/17 Q1015

METARs OBSOLETI :
  • 190300Z AUTO 07006KT 9999 NCD 18/16 Q1015
  • 190230Z AUTO 08006KT 9999 NCD 18/16 Q1015
  • 190200Z AUTO 06007KT 9999 FEW070/// 19/16 Q1015
  • 190130Z AUTO 05007KT 9999 SCT065/// 18/16 Q1015
  • 190100Z AUTO 03003KT 9999 NCD 18/16 Q1015

TAF TAF LRCV
Valido dal 19 a 03 ore il 19 a 12 ore UTC


190200Z 1903/1912 06008KT 9999 SCT045
TEMPO 1903/1908 5000 -SHRA BKN010 BKN025CB
Nessun NOTAM noto per questo aeroporto.



MetMap, La meteo Aeronautica in un colpo d'occhio ! - Copyright ORBIFLY Dicembre 2007 - Disclaimer

ORBIFLY MET'MAP TEAM :

Programmazione e sviluppo : Alexandra Zaïnal
Concezione e sviluppo : Baudouin d'Aumeries
Co-Programmazione e sviluppo : Marc-Olivier Méhu
Supporto tecnico e logistico : Manuel Goepfert
Aiuto per la traduzione : Arnaldo La Scala

Contatto : metmap@orbifly.com




FONTI E CREDITI :

   NOAA